Flag for U.S.A. Weather past 2 weeks in Casper, Wyoming, U.S.A.

Now
58 °F

Sunny.


Feels Like: 58 °F
Forecast: 46 / 77 °F
Wind: 3 mph from North

Location: Natrona County International Airport

Current Time: Sep 21, 2014 at 10:20:53 AM

Latest Report: Sep 21, 2014 at 9:53 AM


Visibility: 10 mi

Pressure: 30.26 "Hg

Humidity: 43%

Dew point: 35 °F

Location of CasperLocation

Historic Weather in Casper — Graph

°F

Casper temperature yesterday

Maximum temperature yesterday: 78 °F (at 2:53 PM)
Minimum temperature yesterday: 44 °F (at 6:53 AM)
Average temperature yesterday: 60 °F

Past Weeks' High & Low Weather Summary

 TemperatureHumidityPressure
High91 °F (Sep 18, 2:53 PM)96% (Sep 15, 5:53 AM)30.59 "Hg (Sep 15, 5:53 AM)
Low26 °F (Sep 12, 5:53 AM)11% (Sep 18, 2:53 PM)29.66 "Hg (Sep 18, 4:53 PM)
Average57 °F52%30.01 "Hg
* Reported Sep 6 8:53 AM — Sep 21 8:53 AM, Casper, Weather by CustomWeather, © 2014

Note: Actual official high and low records may vary slightly from our data, if they occured in-between our weather recording intervals... More about our weather records

Advertising

Casper weather history for previous 24 hours

 ConditionsComfort  
Time TempWeatherWind HumidityBarometerVisibility
8:53 AM
Sep 21
54 °FSunny.3 mph49%30.24 "Hg10 mi
7:53 AM46 °FSunny.3 mph61%30.26 "Hg10 mi
6:53 AM40 °FClear.9 mph73%30.27 "Hg10 mi
5:53 AM40 °FClear.8 mph70%30.24 "Hg10 mi
4:53 AM40 °FClear.7 mph70%30.23 "Hg10 mi
3:53 AM41 °FClear.6 mph70%30.23 "Hg10 mi
2:53 AM44 °FClear.No wind63%30.22 "Hg10 mi
1:53 AM50 °FClear.6 mph50%30.21 "Hg10 mi
12:53 AM51 °FClear.9 mph50%30.20 "Hg10 mi
11:53 PM
Sep 20
51 °FClear.10 mph52%30.20 "Hg10 mi
10:53 PM52 °FClear.10 mph55%30.20 "Hg10 mi
9:53 PM52 °FClear.7 mph55%30.21 "Hg10 mi
8:53 PM60 °FClear.9 mph44%30.19 "Hg10 mi
7:53 PM64 °FSunny.12 mph37%30.17 "Hg10 mi
6:53 PM68 °FSunny.10 mph33%30.16 "Hg10 mi
5:53 PM73 °FSunny.13 mph28%30.13 "Hg10 mi
4:53 PM77 °FSunny.13 mph24%30.12 "Hg10 mi
3:53 PM78 °FSunny.10 mph24%30.11 "Hg10 mi
2:53 PM78 °FSunny.12 mph24%30.11 "Hg10 mi
1:53 PM76 °FSunny.7 mph27%30.12 "Hg10 mi
12:53 PM75 °FSunny.8 mph30%30.13 "Hg10 mi
11:53 AM73 °FSunny.7 mph34%30.11 "Hg10 mi
Weather by CustomWeather, © 2014

See weather overviewHow to use our weather pages